Location: Unspecified
(22.6800°N, 112.2000°E)
Time: 01:38:13
(UTC+08:00)

Courier 1B Rocket - Pass Details

Date: 02 August 2021
Orbit: 920 x 1202 km, 28.3° (Epoch: 17 September)

Event Time Altitude Azimuth Distance (km) Brightness Sun altitude
Exits shadow 04:55:43 - 289° (WNW) 2,812 7.0 -15.1°
Reaches altitude 10° 04:56:05 10° 290° (WNW) 2,684 6.9 -15.0°
Maximum altitude 05:02:24 59° 9° (N) 1,066 5.4 -13.7°
Drops below altitude 10° 05:08:32 10° 88° (E) 2,603 8.4 -12.4°
Sets 05:11:10 0° 92° (E) 3,547 9.1 -11.9°
